Regional Weather Roundup
Issued by NWS Memphis, TN

Home | Current Version | Previous Version | Text Only | Print | Product List | Glossary On
Versions: 1 2 3 4 5 6 7 8 9 10 11 12 13 14 15 16 17 18 19 20 21 22 23 24 25 26 27 28 29 30 31 32 33 34 35 36 37 38 39 40 41 42 43 44 45 46 47 48 49 50
000
ASUS44 KMEG 051810
RWRMEG
MEMPHIS CWA HOURLY WEATHER ROUNDUP
NATIONAL WEATHER SERVICE MEMPHIS TN
1200 PM CST MON DEC 05 2016

...WEST TENNESSEE...

CITY           SKY/WX    TMP DP  RH WIND       PRES   REMARKS
MEMPHIS INTL   CLOUDY    46  41  82 E10G25    29.97F
6HR MIN TEMP:  42; 6HR MAX TEMP:  46; 6HR PCP: TRACE;

NWS MEMPHIS      N/A     44 N/A N/A MISG        N/A
JACKSON        CLOUDY    45  42  89 E9        29.98F
6HR MIN TEMP:  42; 6HR MAX TEMP:  45;

BOLIVAR        CLOUDY    45  43  93 E5        29.97F
LEXINGTON      CLOUDY    43  39  87 E9        29.99F
DYERSBURG      CLOUDY   N/A N/A N/A E8        29.99F
UNION CITY     CLOUDY    41  37  87 E6        30.00F
PARIS          CLOUDY    37  36  93 E6        30.02F WCI  33
HUNTINGDON     CLOUDY    43  39  87 E7        30.00F


...EASTERN ARKANSAS...

CITY           SKY/WX    TMP DP  RH WIND       PRES   REMARKS
JONESBORO      CLOUDY    43  38  82 E10       29.99F
6HR MIN TEMP:  38; 6HR MAX TEMP:  43;

WEST MEMPHIS   CLOUDY    45  40  82 NE7       29.96F
6HR MIN TEMP:  42; 6HR MAX TEMP:  45;

BATESVILLE     CLOUDY    43  37  81 E7        29.97F
6HR MIN TEMP:  34; 6HR MAX TEMP:  43;

NEWPORT        CLOUDY    42  40  92 E8        29.97F
6HR MIN TEMP:  36; 6HR MAX TEMP:  43;

WALNUT RIDGE   CLOUDY    43  36  75 E9        29.98F
6HR MIN TEMP:  34; 6HR MAX TEMP:  43;

BLYTHEVILLE    CLOUDY    45  39  79 E9        29.99F
6HR MIN TEMP:  41; 6HR MAX TEMP:  45;

NW BLYTHEVILLE CLOUDY    43  39  87 E6        29.97F
SEARCY         CLOUDY    43  41  93 NE9       29.97F
6HR MIN TEMP:  38; 6HR MAX TEMP:  43;

STUTTGART      CLOUDY    45  37  76 NE9       29.95F
6HR MIN TEMP:  43; 6HR MAX TEMP:  45;

PINE BLUFF     CLOUDY    45  42  89 NE8       29.93F
6HR MIN TEMP:  43; 6HR MAX TEMP:  45; 6HR PCP: TRACE;

MONTICELLO     CLOUDY    46  43  89 NE9       29.91F
6HR MIN TEMP:  44; 6HR MAX TEMP:  46; 6HR PCP:  0.01;



...NORTH MISSISSIPPI...

CITY           SKY/WX    TMP DP  RH WIND       PRES   REMARKS
TUPELO         LGT RAIN  47  45  93 N7        29.95F FOG
6HR MIN TEMP:  46; 6HR MAX TEMP:  48; 6HR PCP:  0.18;

OXFORD         LGT RAIN  45  41  87 NE7       29.95F
BATESVILLE     DRIZZLE   45  43  95 NE5       29.96F
6HR MIN TEMP:  44; 6HR MAX TEMP:  45;

OLIVE BRANCH   CLOUDY   N/A N/A N/A NE9       29.95F
TUNICA         CLOUDY    45  41  87 NE9       29.94F
CLARKSDALE     CLOUDY    45  45 100 NE8       29.92F
CORINTH        DRIZZLE   46  45  93 E6        29.96F
GREENWOOD      LGT RAIN  48  46  93 NE8       29.89F
6HR MIN TEMP:  47; 6HR MAX TEMP:  48; 6HR PCP:  0.49;

COLUMBUS       LGT RAIN  51  50  95 E6        29.93F
6HR MIN TEMP:  48; 6HR MAX TEMP:  51; 6HR PCP:  0.78;

STARKVILLE     LGT RAIN  50  48  93 NE6       29.93F
GOLDEN TRIANGL CLOUDY    50  46  87 NE6       29.91F FOG


...SOUTHEAST MISSOURI...

CITY           SKY/WX    TMP DP  RH WIND       PRES   REMARKS
KENNETT        CLOUDY    43  39  87 E9        29.98F
WEST PLAINS    MOSUNNY   43  36  76 SE12      29.96F
6HR MIN TEMP:  30; 6HR MAX TEMP:  43;

POPLAR BLUFF   CLOUDY    42  37  82 E7        30.00F
6HR MIN TEMP:  34; 6HR MAX TEMP:  42;

CAPE GIRARDEAU CLOUDY    42  35  76 E5        30.02F
6HR MIN TEMP:  30; 6HR MAX TEMP:  42;



...NORTHWEST ALABAMA...

CITY           SKY/WX    TMP DP  RH WIND       PRES   REMARKS
MUSCLE SHOALS  LGT RAIN  49  45  86 NE5       29.98F
6HR MIN TEMP:  47; 6HR MAX TEMP:  49; 6HR PCP:  0.08;



...MIDDLE TENNESSEE...

CITY           SKY/WX    TMP DP  RH WIND       PRES   REMARKS
NASHVILLE      CLOUDY    45  41  86 NE9       30.03F
6HR MIN TEMP:  42; 6HR MAX TEMP:  45;

CLARKSVILLE    CLOUDY    41  36  82 E7        30.04F
6HR MIN TEMP:  39; 6HR MAX TEMP:  41;

COLUMBIA       CLOUDY   N/A N/A N/A NE6       29.97F


...WESTERN KENTUCKY...

CITY           SKY/WX    TMP DP  RH WIND       PRES   REMARKS
PADUCAH        PTSUNNY   43  36  76 E10       30.01F
6HR MIN TEMP:  35; 6HR MAX TEMP:  43;

FORT CAMPBELL  CLOUDY    40  37  86 E9        30.03F WCI  34
6HR MIN TEMP:  38; 6HR MAX TEMP:  40;



...CENTRAL ARKANSAS...

CITY           SKY/WX    TMP DP  RH WIND       PRES   REMARKS
LITTLE ROCK    DRIZZLE   43  42  97 E10       29.95F
6HR MIN TEMP:  39; 6HR MAX TEMP:  43; 6HR PCP: TRACE;



SKY/WX REPORTED AS FAIR MEANS FEW OR NO CLOUDS BELOW
12 THOUSAND FEET.




USA.gov is the U.S. government's official web portal to all federal, state and local government web resources and services.